Location: Unspecified
(17.6330°N, 0.0000°E)
Time: 23:29:45
(UTC+00:00)

Transit 2A - Visible Passes

Search period start: 18 June 2019 00:00
Search period end: 28 June 2019 00:00
Orbit: 593 x 966 km, 66.7° (Epoch: 18 June)

Date Brightness Start Highest point End Pass type
(mag) Time Alt. Az. Time Alt. Az. Time Alt. Az.
18 Jun 8.9 01:02:21 16° N 01:02:21 16° N 01:03:33 10° N visible
19 Jun 9.0 00:28:59 14° NNE 00:28:59 14° NNE 00:29:44 10° NNE visible
19 Jun 9.2 23:55:34 11° NNE 23:55:34 11° NNE 23:55:41 10° NNE visible
21 Jun 9.1 01:02:35 10° NNW 01:02:35 10° NNW 01:02:40 10° NNW visible
22 Jun 9.1 00:29:03 12° NNW 00:29:03 12° NNW 00:29:36 10° N visible
22 Jun 9.1 23:55:29 13° N 23:55:29 13° N 23:56:07 10° N visible
23 Jun 9.1 23:21:50 12° N 23:21:50 12° N 23:22:21 10° NNE visible
24 Jun 9.1 22:48:07 11° NNE 22:48:07 11° NNE 22:48:22 10° NNE visible
25 Jun 9.2 23:54:44 11° NNW 23:54:44 11° NNW 23:55:00 10° NNW visible
26 Jun 9.0 23:20:49 15° NNW 23:20:49 15° NNW 23:22:06 10° N visible
27 Jun 8.7 22:46:45 19° N 22:46:45 19° N 22:48:40 10° N visible
